Other Public Products
Issued by NWS Charleston, SC

Current Version | Previous Version | Graphics & Text | Print | Product List | Glossary On
Versions: 1 2 3 4 5 6 7 8 9 10 11 12 13 14 15 16 17 18 19 20 21 22 23 24 25 26 27 28 29 30 31 32 33 34 35 36 37 38 39 40 41 42 43 44 45 46 47 48 49 50
000 FPUS82 KCHS 041827 OPUCHS TEST...KCHS/KSAV Gateway Observations...TEST National Weather Service Charleston SC 100 PM EST SUN DEC 04 2016 NOTE: "fair" indicates few or no clouds below 12,000 feet with no significant weather and/or obstructions to visibility. SCZ050-WAZ558-NCZ071-TXZ119-213-PAZ071-DCZ001-FLZ074-172-MI076- NYZ176-178-MAZ016-IL014-TNZ027-NJZ106-GAZ044-MD014-041900- ...Gateway Observations for Charleston International... CITY SKY/WX TMP DP RH WIND PRES REMARKS Chas Airport CLOUDY 59 46 62 E10 30.16F 6HR MIN TEMP: 50; 6HR MAX TEMP: 59; Seattle CLOUDY 37 36 96 S6 30.03S WCI 32 6HR MIN TEMP: 37; 6HR MAX TEMP: 43; 6HR PCP: 0.17; Charlotte LGT RAIN 41 38 89 NE6 30.23F FOG 6HR MIN TEMP: 41; 6HR MAX TEMP: 43; 6HR PCP: 0.21; Dallas DFW CLOUDY 51 44 77 N12 30.08R 6HR MIN TEMP: 48; 6HR MAX TEMP: 51; 6HR PCP: TRACE; Dallas Love CLOUDY 52 45 77 N6 30.08R 6HR MIN TEMP: 48; 6HR MAX TEMP: 52; Philladelphia PTSUNNY 47 24 40 NW10 30.22F 6HR MIN TEMP: 41; 6HR MAX TEMP: 47; Wash National CLOUDY 46 30 53 SE3 30.25F 6HR MIN TEMP: 38; 6HR MAX TEMP: 46; Baltimore CLOUDY 46 29 51 W8 30.23F 6HR MIN TEMP: 36; 6HR MAX TEMP: 47; Miami PTSUNNY 81 68 64 E16 30.04F 6HR MIN TEMP: 74; 6HR MAX TEMP: 81; Detroit CLOUDY 38 27 64 S7 30.13F WCI 33 6HR MIN TEMP: 34; 6HR MAX TEMP: 38; Newark PTSUNNY 47 22 37 NW14 30.19F 6HR MIN TEMP: 39; 6HR MAX TEMP: 47; Laguardia MOSUNNY 46 22 38 NW8 30.19F 6HR MIN TEMP: 41; 6HR MAX TEMP: 46; J F K PTSUNNY 47 20 34 NW14 30.20F 6HR MIN TEMP: 39; 6HR MAX TEMP: 47; Boston Logan SUNNY 40 20 44 NW10 30.16F WCI 33 6HR MIN TEMP: 34; 6HR MAX TEMP: 41; Ft. Lauderdale CLOUDY 79 69 71 E16 30.04F 6HR MIN TEMP: 75; 6HR MAX TEMP: 81; 6HR PCP: TRACE; Chicago O`Hare SNOW 31 30 96 SE5 30.03F VSB 1/4 WCI 26 6HR MIN TEMP: 31; 6HR MAX TEMP: 33; 6HR PCP: 0.08; Chicago Midway SNOW 32 29 88 E6 30.01F VSB 1/2 WCI 26 6HR MIN TEMP: 32; 6HR MAX TEMP: 35; 6HR PCP: 0.04; Houston Bush LGT RAIN 52 50 93 N7 30.02R FOG 6HR MIN TEMP: 51; 6HR MAX TEMP: 52; 6HR PCP: 0.48; Houston Hobby HVY RAIN 53 51 93 N9 29.99R FOG 6HR MIN TEMP: 52; 6HR MAX TEMP: 54; 6HR PCP: 0.42; Nashville CLOUDY 48 44 86 S12 29.96F 6HR MIN TEMP: 42; 6HR MAX TEMP: 48; 6HR PCP: 0.05; Atlanta LGT RAIN 45 45 100 E10 30.09F FOG 6HR MIN TEMP: 44; 6HR MAX TEMP: 46; 6HR PCP: 0.54; $$ GAZ044-118-TXZ119-213-NCZ071-DCZ001-MDZ014-506-PAZ021-071-NJZ106- NYZ176-178-MAZ106-OHZ011-021-055-MIZ076-KYZ091-ILZ014-INZ047- MNZ060-041900- ...Gateway Observations for Savannah International... CITY SKY/WX TMP DP RH WIND PRES REMARKS Savannah Arpt CLOUDY 63 51 65 E8 30.13F 6HR MIN TEMP: 52; 6HR MAX TEMP: 65; Atlanta LGT RAIN 45 45 100 E10 30.09F FOG 6HR MIN TEMP: 44; 6HR MAX TEMP: 46; 6HR PCP: 0.54; Charlotte LGT RAIN 41 38 89 NE6 30.23F FOG 6HR MIN TEMP: 41; 6HR MAX TEMP: 43; 6HR PCP: 0.21; Dallas DFW CLOUDY 51 44 77 N12 30.08R 6HR MIN TEMP: 48; 6HR MAX TEMP: 51; 6HR PCP: TRACE; Houston Bush LGT RAIN 52 50 93 N7 30.02R FOG 6HR MIN TEMP: 51; 6HR MAX TEMP: 52; 6HR PCP: 0.48; Wash National CLOUDY 46 30 53 SE3 30.25F 6HR MIN TEMP: 38; 6HR MAX TEMP: 46; Wash Dulles CLOUDY 44 26 49 CALM 30.25F 6HR MIN TEMP: 30; 6HR MAX TEMP: 45; Baltimore CLOUDY 46 29 51 W8 30.23F 6HR MIN TEMP: 36; 6HR MAX TEMP: 47; Philadelphia PTSUNNY 47 24 40 NW10 30.22F 6HR MIN TEMP: 41; 6HR MAX TEMP: 47; Newark PTSUNNY 47 22 37 NW14 30.19F 6HR MIN TEMP: 39; 6HR MAX TEMP: 47; Laguardia MOSUNNY 46 22 38 NW8 30.19F 6HR MIN TEMP: 41; 6HR MAX TEMP: 46; J F K PTSUNNY 47 20 34 NW14 30.20F 6HR MIN TEMP: 39; 6HR MAX TEMP: 47; Boston SUNNY 40 20 44 NW10 30.16F WCI 33 6HR MIN TEMP: 34; 6HR MAX TEMP: 41; Pittsburg CLOUDY 41 29 62 E10 30.15F 6HR MIN TEMP: 32; 6HR MAX TEMP: 41; Akron CLOUDY 39 27 62 SE9 30.13F WCI 33 6HR MIN TEMP: 33; 6HR MAX TEMP: 39; Cleveland CLOUDY 41 25 53 S7 30.17F 6HR MIN TEMP: 34; 6HR MAX TEMP: 41; Cincinnati CLOUDY 43 31 62 E9 30.01F 6HR MIN TEMP: 37; 6HR MAX TEMP: 43; Columbus CLOUDY 40 29 64 E9 30.07F WCI 35 Detroit CLOUDY 38 27 64 S7 30.13F WCI 33 6HR MIN TEMP: 34; 6HR MAX TEMP: 38; Chicago O`Hare SNOW 31 30 96 SE5 30.03F VSB 1/4 WCI 26 6HR MIN TEMP: 31; 6HR MAX TEMP: 33; 6HR PCP: 0.08; Minneapolis CLOUDY 35 31 85 SW10 29.83F WCI 27 6HR MIN TEMP: 32; 6HR MAX TEMP: 35; 6HR PCP: 0.03; Indianapolis LGT RAIN 40 33 76 E12 29.97F WCI 33 6HR MIN TEMP: 34; 6HR MAX TEMP: 40; 6HR PCP: TRACE; $$

USA.gov is the U.S. government's official web portal to all federal, state and local government web resources and services.